This is the latest recevied weather packets stored in our database for station/object KD7MPG-3. If no packets are shown the sender has not sent any weather packets the latest 10 day(s).
| Time | Temp. | Humidity | Pressure | Rain* | Wind** | Luminosity | Snow |
|---|---|---|---|---|---|---|---|
| 1777508844 | 21.67° C | 45% | 1028.4 hPa | 0 mm | - | - | - |
| 1777508544 | 21.67° C | 45% | 1028.5 hPa | 0 mm | - | - | - |
| 1777508242 | 21.67° C | 45% | 1028.5 hPa | 0 mm | - | - | - |
| 1777507942 | 21.67° C | 45% | 1028.5 hPa | 0 mm | - | - | - |
| 1777507644 | 21.67° C | 46% | 1028.7 hPa | 0 mm | - | - | - |
| 1777507343 | 21.11° C | 45% | 1028.7 hPa | 0 mm | - | - | - |
| 1777507041 | 21.11° C | 43% | 1028.8 hPa | 0 mm | - | - | - |
| 1777506738 | 21.67° C | 45% | 1028.9 hPa | 0 mm | - | - | - |
| 1777506439 | 21.11° C | 48% | 1028.9 hPa | 0 mm | - | - | - |
| 1777506140 | 21.11° C | 46% | 1029 hPa | 0 mm | - | - | - |
| 1777505839 | 21.11° C | 48% | 1029 hPa | 0 mm | - | - | - |
| 1777505536 | 21.11° C | 46% | 1029 hPa | 0 mm | - | - | - |
| 1777505237 | 21.11° C | 48% | 1029.1 hPa | 0 mm | - | - | - |
| 1777504932 | 21.11° C | 47% | 1029.2 hPa | 0 mm | - | - | - |
| 1777504630 | 21.11° C | 48% | 1029.4 hPa | 0 mm | - | - | - |
| 1777504330 | 21.11° C | 51% | 1029.5 hPa | 0 mm | - | - | - |
| 1777504030 | 21.11° C | 48% | 1029.7 hPa | 0 mm | - | - | - |
| 1777503730 | 21.11° C | 50% | 1029.8 hPa | 0 mm | - | - | - |
| 1777503431 | 21.11° C | 51% | 1029.9 hPa | 0 mm | - | - | - |
| 1777503124 | 20.56° C | 51% | 1029.8 hPa | 0 mm | - | - | - |
| 1777502825 | 20.56° C | 50% | 1030.1 hPa | 0 mm | - | - | - |
| 1777502524 | 20.56° C | 52% | 1030 hPa | 0 mm | - | - | - |
| 1777502224 | 20.56° C | 50% | 1030.2 hPa | 0 mm | - | - | - |
| 1777501924 | 20.56° C | 50% | 1030.2 hPa | 0 mm | - | - | - |
| 1777501625 | 20.56° C | 52% | 1030.2 hPa | 0 mm | - | - | - |
* Rain latest hour (hover to see other rain measurements)
** Current wind speed in m/s (hover to see current wind gust speed)